STARLINK-4720, 53800

Orbit data source: Space-Track

STARLINK-4720, 53800 is a payload satellite owned by SpaceX/Seattle (US) in LEO that was launched on Sun, 11 Sep 2022 UTC via an FALCON 9 launch vehicle from the Air Force Eastern Test Range (AFETR). Payload-class satellites include a variety of spacecraft equipped with specific instruments for various scientific and technological missions. These include communications satellites like Starlink; space stations such as the ISS; scientific satellites like the Hubble; Earth observation satellites from companies like Planet Labs, Umbra, and HawkEye 360; GPS; miniature CubeSats for education and research; and military/defense satellites.

Loading next visibility...
Identifier
53800, 2022-111AD
Orbit
LEO
Last TLE update
7 hours ago
Origin
Manufacturer
SpaceX/Seattle
Mission
Operational Commercial Communications
Bus & Motor
STARLINK, Unknown motor
Mass
305 kg wet, ~290 kg dry
Launch date (UTC)
2022-09-11 (3 years ago)
Launch vehicle
FALCON 9
Launch site
Air Force Eastern Test Range (AFETR)
Object type
Payload
Rocket body
Debris
Shape & HBR
Box + 1 Pan, 8.86 m
Radar Cross Section
13.562 m², Large (>1 m²)

Expand to show TLE details & history

TLE from 7 hours ago
0 STARLINK-4720
1 53800U 22111AD  25129.49197049  .00000779  00000-0  67013-4 0  9999
2 53800  53.2160 189.6607 0001220  75.2094 284.9033 15.08844356147087
Epoch: 2025-05-09T11:48Z
Definitive object data (Epoch: 2025-05-09T11:48:26.25Z)
Latitude
-0.00004°
Longitude
145.00396°
Altitude
540.41 km
Speed
7.593 km/s
True Right ascension
12h 38m 38s
True Declination
0° 00' 00"
Sunlit
Object was in full shadow at TLE epoch
Visualization TLE readout
Latitude
40.35213°
Longitude
-75.46929°
Altitude
542.862 km
Speed
7.596 km/s
Apparent Right ascension
18h 36m 50s
Apparent Declination
3° 36' 31"
Sunlit
Object is in daylight
Visualization observer readout
Local Sidereal Time
02:54:15
Azimuth
296.435° NW
Elevation
-23.051°
Doppler factor
1
Orbital elements
Apogee altitude
540.819 km
Perigee altitude
539.131 km
Semi-major axis
6,918.112 km
Eccentricity
0.000122
Inclination
53.216°
RAAN
189.6607°
Arg. of periapsis
75.2094°
True anomaly
284.88979°
Mean anomaly
284.9033°
Eccentric anomaly
284.89654°
Mean motion
3.77191 °/min
BSTAR
0.000067013
Orbital period
95.44 mins
Loading maneuver chart data...
Loading SW <> Apogee altitude chart data...
Loading historical data...
Loading historical data...
Loading historical data...
Loading historical data...
Loading historical data...
Loading historical data...
Loading historical data...

STARLINK-4720 Visibility forecast

Observer location: undefined°, undefined°

Span
Click to sort rows by Start time (UTC) header in descending order
Start Az.
Max El. time (UTC)
Max El. Az.
Max El.
End time (UTC)
End Az.
5 mins2025-05-10 05:26:24.016Z169.548° S2025-05-10 05:29:24.016Z119.719° SE17.332°2025-05-10 05:31:24.016Z87.681° E
6 mins2025-05-10 07:05:24.016Z247.817° W2025-05-10 07:08:24.016Z352.341° N39.711°2025-05-10 07:11:24.016Z42.122° NE
4 mins2025-05-10 08:46:24.016Z314.344° NW2025-05-10 08:48:24.016Z349.68° N16.21°2025-05-10 08:50:24.016Z20.998° NNE
5 mins2025-05-10 12:07:24.016Z346.643° N2025-05-10 12:09:24.016Z29.582° NE22.727°2025-05-10 12:12:24.016Z80.369° E
6 mins2025-05-10 13:46:24.016Z299.208° NW2025-05-10 13:48:24.016Z259.737° W40.214°2025-05-10 13:52:24.016Z143.834° SSE
|